time_stamp(utc),avg(mph),gust(mph),direction(deg),12m_air_temp(f),sonic_u(cm/s),sonic_v(cm/s),sonic_w(cm/s),pressure,2m_air_temp(f),pyranometer(W/m^2)
"2016-11-09 00:02:20+00",10.5,11.5,,58.1,-450,-38,1,1015.78,52.9,0
"2016-11-09 00:07:20+00",9.4,10.4,,57.5,-409,0,6,1015.87,52.7,0
"2016-11-09 00:12:20+00",8.9,9.9,,57,-389,12,14,1015.84,52.7,0
"2016-11-09 00:17:20+00",7.6,8.6,,56.3,-319,-26,4,1015.8,52.5,0
"2016-11-09 00:22:20+00",7.8,8.8,,55.7,-344,-6,4,1015.81,52.2,0
"2016-11-09 00:27:20+00",9.7,10.7,,55.9,-426,19,12,1015.66,52,0
"2016-11-09 00:32:20+00",8.0,10.0,,55.6,-352,49,9,1015.61,52.2,0
"2016-11-09 00:37:20+00",9.1,10.1,,55.4,-399,47,12,1015.67,52.3,0
"2016-11-09 00:42:20+00",9.7,10.7,,55.2,-425,38,17,1015.59,52.4,0
"2016-11-09 00:47:20+00",9.7,10.7,,54.8,-426,54,12,1015.65,52.2,0
"2016-11-09 00:52:20+00",10.4,11.4,,54.8,-450,72,16,1015.56,52.2,0
"2016-11-09 00:57:20+00",9.1,10.1,,54.7,-396,66,19,1015.74,52.3,0
"2016-11-09 01:02:20+00",8.4,9.4,,53.8,-371,64,14,1015.49,52.2,0
"2016-11-09 01:07:20+00",9.5,11.5,,54.5,-414,54,22,1015.5,51.9,0
"2016-11-09 01:12:20+00",8.9,9.9,,54.3,-387,73,9,1015.48,51.8,0
"2016-11-09 01:17:20+00",6.9,7.9,,53.9,-292,44,12,1015.34,51.5,0
"2016-11-09 01:22:20+00",7.3,8.3,,53.5,-321,42,11,1015.31,51.4,0
"2016-11-09 01:27:20+00",8.9,10.9,,53.6,-398,41,13,1015.26,51.2,0
"2016-11-09 01:32:20+00",10.8,11.8,,54.1,-479,8,20,1015.29,51.1,0
"2016-11-09 01:37:20+00",8.6,8.6,,54.3,-372,-10,14,1015.3,51.2,0
"2016-11-09 01:42:20+00",8.0,8.0,,54.2,-346,-28,6,1015.26,51,0
"2016-11-09 01:47:20+00",8.3,9.3,,54.5,-356,-39,6,1015.35,50.8,0
"2016-11-09 01:52:20+00",8.4,8.4,,54.6,-352,-67,7,1015.41,50.5,0
"2016-11-09 01:57:20+00",7.8,8.8,,54.3,-313,-74,8,1015.39,50.2,0
"2016-11-09 02:02:20+00",7.8,9.8,,54.2,-322,-151,6,1015.27,50,0
"2016-11-09 02:07:20+00",7.5,8.5,,53.9,-310,-103,7,1015.26,49.8,0
"2016-11-09 02:12:20+00",7.5,8.5,,53.5,-317,-114,10,1015.1,49.6,0
"2016-11-09 02:17:20+00",7.6,8.6,,53.3,-316,-59,1,1015.07,49.3,0
"2016-11-09 02:22:20+00",8.2,9.2,,53.2,-355,-36,3,1015.04,49,0
"2016-11-09 02:27:20+00",8.3,9.3,,53.4,-359,-23,11,1014.86,48.9,0
"2016-11-09 02:32:20+00",8.6,8.6,,53.5,-371,-33,12,1014.85,48.9,0
"2016-11-09 02:37:20+00",9.5,10.5,,53.6,-407,-65,9,1014.81,49,0
"2016-11-09 02:42:20+00",9.3,10.3,,53.7,-400,-32,13,1014.83,49.1,0
"2016-11-09 02:47:20+00",9.9,10.9,,53.8,-428,-29,11,1014.7,49.1,0
"2016-11-09 02:52:20+00",10.7,10.7,,54.2,-459,-58,9,1014.69,49.2,0
"2016-11-09 02:57:20+00",9.8,9.8,,54.1,-419,-59,9,1014.67,49.4,0
"2016-11-09 03:02:20+00",10.6,11.6,,54,-453,-73,11,1014.62,49.7,0
"2016-11-09 03:07:20+00",10.2,11.2,,54,-427,-83,9,1014.66,49.9,0
"2016-11-09 03:12:20+00",9.6,10.6,,54,-406,-75,7,1014.56,50,0
"2016-11-09 03:17:20+00",9.6,10.6,,53.9,-407,-65,7,1014.47,49.9,0
"2016-11-09 03:22:20+00",9.1,10.1,,53.8,-390,-46,14,1014.29,50,0
"2016-11-09 03:27:20+00",8.6,9.6,,53.5,-367,-51,7,1014.27,50.1,0
"2016-11-09 03:32:20+00",8.6,9.6,,53.6,-358,-66,6,1014.31,49.9,0
"2016-11-09 03:37:20+00",7.1,7.1,,53.5,-293,-56,5,1014.23,49.5,0
"2016-11-09 03:42:20+00",7.3,8.3,,53.6,-307,-47,5,1014.2,49.2,0
"2016-11-09 03:47:20+00",6.2,7.2,,53.5,-263,-21,10,1014.07,49.2,0
"2016-11-09 03:52:20+00",6.7,7.7,,53.1,-275,-67,12,1014.01,49.3,0
"2016-11-09 03:57:20+00",6.5,7.5,,52.8,-275,-101,14,1014.11,49.4,0
"2016-11-09 04:02:20+00",7.0,7.0,,52.7,-294,-103,13,1014.1,49.4,0
"2016-11-09 04:07:20+00",6.6,6.6,,52.9,-271,-50,4,1013.94,49.4,0
"2016-11-09 04:12:20+00",6.7,6.7,,53,-274,-89,11,1013.86,49.3,0
"2016-11-09 04:17:20+00",7.1,7.1,,53.1,-282,-81,10,1013.77,49.4,0
"2016-11-09 04:22:20+00",7.6,7.6,,53.2,-304,-96,7,1013.73,49.7,0
"2016-11-09 04:27:20+00",7.8,8.8,,53.5,-328,-118,13,1013.71,49.6,0
"2016-11-09 04:32:20+00",9.2,10.2,,54,-380,-124,12,1013.59,49.5,0
"2016-11-09 04:37:20+00",8.1,9.1,,54,-336,-61,10,1013.61,49.4,0
"2016-11-09 04:42:20+00",8.0,9.0,,53.8,-327,-74,10,1013.53,49.4,0
"2016-11-09 04:47:20+00",7.8,8.8,,54,-326,-125,9,1013.48,49.4,0
"2016-11-09 04:52:20+00",7.4,8.4,,53.7,-243,-197,6,1013.34,49.7,0
"2016-11-09 04:57:20+00",7.9,8.9,,53.7,-327,-88,2,1013.29,49.9,0
"2016-11-09 05:02:20+00",7.4,8.4,,53.5,-306,-146,2,1013.29,49.9,0
"2016-11-09 05:07:20+00",9.0,11.0,,54.1,-385,-42,11,1013.32,50.1,0
"2016-11-09 05:12:20+00",8.1,10.1,,54.2,-338,-104,15,1013.3,50.6,0
"2016-11-09 05:17:20+00",7.0,8.0,,54,-285,-52,15,1013.16,50.9,0
"2016-11-09 05:22:20+00",7.8,8.8,,53.9,-332,-28,16,1013.09,51.1,0
"2016-11-09 05:27:20+00",5.8,8.8,,53.7,-234,-80,22,1013.08,51.3,0
"2016-11-09 05:32:20+00",6.3,8.3,,53.5,-252,-111,1,1012.89,51.3,0
"2016-11-09 05:37:20+00",6.5,7.5,,53.5,-271,-122,0,1012.93,51.2,0
"2016-11-09 05:42:20+00",7.3,8.3,,53.5,-300,-59,11,1012.94,51.1,0
"2016-11-09 05:47:20+00",9.6,11.6,,53.6,-419,-21,17,1012.89,51,0
"2016-11-09 05:52:20+00",9.5,10.5,,53.8,-418,-26,15,1012.76,51.5,0
"2016-11-09 05:57:20+00",10.6,11.6,,53.9,-464,-20,19,1012.8,51.9,0
"2016-11-09 06:02:20+00",10.0,11.0,,53.9,-437,-31,16,1012.71,52.1,0
"2016-11-09 06:07:20+00",10.8,11.8,,53.8,-472,-19,16,1012.63,52.2,0
"2016-11-09 06:12:20+00",10.9,11.9,,53.8,-465,-62,10,1012.68,52.2,0
"2016-11-09 06:17:20+00",11.8,12.8,,53.8,-515,-39,17,1012.6,52.2,0
"2016-11-09 06:22:20+00",12.2,13.2,,54,-524,-62,16,1012.52,52.3,0
"2016-11-09 06:27:20+00",12.1,12.1,,54.2,-523,-63,16,1012.56,52.3,0
"2016-11-09 06:32:20+00",11.9,12.9,,54.2,-484,-128,21,1012.56,52.3,0
"2016-11-09 06:37:20+00",12.5,13.5,,54.1,-515,-150,15,1012.5,52.4,0
"2016-11-09 06:42:20+00",11.3,12.3,,53.9,-468,-103,15,1012.51,52.5,0
"2016-11-09 06:47:20+00",11.6,12.6,,53.9,-476,-110,-1,1012.45,52.6,0
"2016-11-09 06:52:20+00",9.4,11.4,,53.8,-396,-139,17,1012.44,52.7,0
"2016-11-09 06:57:20+00",8.4,9.4,,53.8,-352,-180,11,1012.32,52.6,0
"2016-11-09 07:02:20+00",9.0,10.0,,53.8,-359,-197,6,1012.3,52.5,0
"2016-11-09 07:07:20+00",9.4,10.4,,54,-379,-206,15,1012.31,52.4,0
"2016-11-09 07:12:20+00",8.9,9.9,,54.1,-382,-155,16,1012.28,52.5,0
"2016-11-09 07:17:20+00",8.3,9.3,,54,-339,-81,10,1012.26,52.6,0
"2016-11-09 07:22:20+00",7.2,8.2,,53.9,-302,-45,3,1012.22,52.7,0
"2016-11-09 07:27:20+00",8.3,10.3,,54,-343,-86,14,1012.17,52.6,0
"2016-11-09 07:32:20+00",6.2,6.2,,54,-259,-36,6,1012.09,52.6,0
"2016-11-09 07:37:20+00",5.8,6.8,,54,-238,-64,8,1012.01,52.6,0
"2016-11-09 07:42:20+00",5.8,6.8,,54,-248,-99,6,1011.95,52.5,0
"2016-11-09 07:47:20+00",5.6,6.6,,54,-226,-53,7,1011.86,52.4,0
"2016-11-09 07:52:20+00",5.3,6.3,,54,-213,-64,7,1011.81,52.2,0
"2016-11-09 07:57:20+00",6.6,7.6,,54,-267,-70,4,1011.86,52.2,0
"2016-11-09 08:02:20+00",5.2,6.2,,54,-214,-62,11,1011.72,52.1,0
"2016-11-09 08:07:20+00",6.1,7.1,,54,-246,-61,4,1011.67,52.1,0
"2016-11-09 08:12:20+00",6.8,7.8,,54,-277,-70,5,1011.56,52.2,0
"2016-11-09 08:17:20+00",8.5,9.5,,54,-357,-53,10,1011.6,52.2,0
"2016-11-09 08:22:20+00",7.9,8.9,,53.8,-338,-28,9,1011.51,52.2,0
"2016-11-09 08:27:20+00",7.0,8.0,,53.6,-296,-36,8,1011.41,52.2,0
"2016-11-09 08:32:20+00",6.9,7.9,,53.5,-284,-57,6,1011.39,52.2,0
"2016-11-09 08:37:20+00",7.6,7.6,,53.5,-305,-75,9,1011.38,52.1,0
"2016-11-09 08:42:20+00",8.5,8.5,,53.6,-344,-91,13,1011.31,52,0
"2016-11-09 08:47:20+00",8.3,9.3,,53.6,-349,-65,5,1011.22,51.9,0
"2016-11-09 08:52:20+00",9.4,10.4,,53.6,-387,-82,12,1011.08,51.9,0
"2016-11-09 08:57:20+00",7.6,8.6,,53.4,-312,-86,16,1011.13,52,0
"2016-11-09 09:02:20+00",6.3,7.3,,53.5,-271,-110,6,1010.91,52,0
"2016-11-09 09:07:20+00",5.4,6.4,,53.7,-223,-81,10,1010.95,52,0
"2016-11-09 09:12:20+00",6.6,7.6,,54.1,-279,-27,7,1010.81,52.1,0
"2016-11-09 09:17:20+00",7.5,8.5,,54.3,-323,4,19,1010.82,52.3,0
"2016-11-09 09:22:20+00",8.8,9.8,,54.3,-383,-15,14,1010.81,52.4,0
"2016-11-09 09:27:20+00",8.0,9.0,,54,-343,-35,11,1010.81,52.6,0
"2016-11-09 09:32:20+00",10.1,12.1,,53.7,-421,-95,16,1010.89,52.6,0
"2016-11-09 09:37:20+00",10.0,11.0,,53.4,-421,-138,24,1010.95,52.5,0
"2016-11-09 09:42:20+00",9.8,10.8,,53.3,-403,-86,12,1010.83,52.4,0
"2016-11-09 09:47:20+00",11.5,12.5,,53.2,-476,-152,14,1010.86,52.4,0
"2016-11-09 09:52:20+00",6.9,7.9,,53,-281,-57,4,1010.74,52.4,0
"2016-11-09 09:57:20+00",9.1,11.1,,53.3,-377,-94,7,1010.73,52.3,0
"2016-11-09 10:02:20+00",9.2,11.2,,53.6,-380,-126,12,1010.7,52.4,0
"2016-11-09 10:07:20+00",7.4,8.4,,53.6,-306,-108,6,1010.67,52.5,0
"2016-11-09 10:12:20+00",6.3,7.3,,53.4,-267,-26,8,1010.57,52.5,0
"2016-11-09 10:17:20+00",7.3,8.3,,53.6,-318,21,15,1010.62,52.4,0
"2016-11-09 10:22:20+00",6.2,7.2,,53.6,-263,-18,10,1010.53,52.4,0
"2016-11-09 10:27:20+00",6.5,7.5,,53.5,-279,-12,6,1010.54,52.3,0
"2016-11-09 10:32:20+00",6.8,7.8,,53.5,-296,5,14,1010.52,52.3,0
"2016-11-09 10:37:20+00",7.4,8.4,,53.4,-322,-6,16,1010.52,52.2,0
"2016-11-09 10:42:20+00",6.8,6.8,,53.1,-293,-6,13,1010.47,52.1,0
"2016-11-09 10:47:20+00",5.3,6.3,,53,-227,-9,11,1010.46,52,0
"2016-11-09 10:52:20+00",5.0,6.0,,52.9,-215,4,11,1010.31,51.9,0
"2016-11-09 10:57:20+00",5.9,6.9,,52.8,-255,12,16,1010.25,51.7,0
"2016-11-09 11:02:20+00",5.8,6.8,,52.8,-253,17,15,1010.26,51.6,0
"2016-11-09 11:07:20+00",6.4,7.4,,52.9,-276,-17,9,1010.27,51.4,0
"2016-11-09 11:12:20+00",4.8,4.8,,52.8,-202,-10,10,1010.4,51.2,0
"2016-11-09 11:17:20+00",3.9,3.9,,52.7,-160,-14,5,1010.37,51.1,0
"2016-11-09 11:22:20+00",4.4,4.4,,52.6,-186,-4,7,1010.3,51.1,0
"2016-11-09 11:27:20+00",5.6,6.6,,52.7,-231,-38,1,1010.25,51.1,0
"2016-11-09 11:32:20+00",6.8,6.8,,52.9,-293,-27,13,1010.28,51.1,0
"2016-11-09 11:37:20+00",7.1,7.1,,52.9,-303,-29,11,1010.3,51.1,0
"2016-11-09 11:42:20+00",6.3,6.3,,52.7,-249,-63,7,1010.35,51.1,0
"2016-11-09 11:47:20+00",3.8,3.8,,52.5,-158,-66,2,1010.32,51.1,0
"2016-11-09 11:52:20+00",3.1,3.1,,52.4,-114,-65,0,1010.33,51,0
"2016-11-09 11:57:20+00",3.4,3.4,,52.4,-120,-75,1,1010.42,51,0
"2016-11-09 12:02:20+00",3.8,3.8,,52.4,-144,-81,4,1010.42,51,0
"2016-11-09 12:07:20+00",4.1,4.1,,52.5,-174,14,5,1010.46,51.1,0
"2016-11-09 12:12:20+00",3.8,3.8,,52.6,-156,29,5,1010.45,51.2,0
"2016-11-09 12:17:20+00",2.7,2.7,,52.6,-106,19,7,1010.35,51.2,0
"2016-11-09 12:22:20+00",3.5,3.5,,52.4,-142,13,6,1010.38,51.3,0
"2016-11-09 12:27:20+00",5.7,5.7,,52.3,-250,10,13,1010.58,51.6,0
"2016-11-09 12:32:20+00",5.9,6.9,,52.3,-252,-1,10,1010.49,51.7,0
"2016-11-09 12:37:20+00",6.6,6.6,,52.2,-277,-42,9,1010.6,51.8,0
"2016-11-09 12:42:20+00",7.2,8.2,,52.3,-298,-59,5,1010.76,51.8,0
"2016-11-09 12:47:20+00",7.1,7.1,,52.2,-296,-33,8,1010.86,51.9,0
"2016-11-09 12:52:20+00",5.8,6.8,,52.2,-241,-28,18,1010.78,51.9,0
"2016-11-09 12:57:20+00",6.2,7.2,,52.3,-266,44,26,1010.8,52,0
"2016-11-09 13:02:20+00",7.4,8.4,,52.4,-308,120,19,1010.72,52,0.1
"2016-11-09 13:07:20+00",6.8,7.8,,52.3,-287,77,28,1010.7,52.1,1.8
"2016-11-09 13:12:20+00",7.1,8.1,,52.3,-292,103,13,1010.57,52.2,5
"2016-11-09 13:17:20+00",6.3,8.3,,52.3,-238,123,34,1010.54,52.3,7
"2016-11-09 13:22:20+00",7.3,8.3,,52.2,-303,91,12,1010.48,52.3,3.8
"2016-11-09 13:27:20+00",7.9,8.9,,52.1,-328,97,21,1010.56,52.2,3.9
"2016-11-09 13:32:20+00",7.6,8.6,,52,-325,96,38,1010.56,52.3,0.2
"2016-11-09 13:37:20+00",11.0,12.0,,52.1,-472,98,17,1010.59,52.3,1.2
"2016-11-09 13:42:20+00",10.3,12.3,,52,-438,157,42,1010.68,52.2,1.8
"2016-11-09 13:47:20+00",9.6,11.6,,52.1,-409,133,42,1010.56,52.2,6
"2016-11-09 13:52:20+00",9.5,11.5,,52.2,-394,159,24,1010.5,52.3,20
"2016-11-09 13:57:20+00",9.6,11.6,,52.3,-400,162,16,1010.55,52.4,27.6
"2016-11-09 14:02:20+00",10.3,12.3,,52.4,-430,150,33,1010.61,52.6,31.4
"2016-11-09 14:07:20+00",11.7,13.7,,52.6,-479,218,30,1010.62,52.7,35.7
"2016-11-09 14:12:20+00",10.2,12.2,,52.7,-402,206,13,1010.56,52.8,22
"2016-11-09 14:17:20+00",10.0,12.0,,52.6,-399,184,15,1010.58,52.8,7.4
"2016-11-09 14:22:20+00",9.8,10.8,,52.6,-394,169,11,1010.62,52.8,2.9
"2016-11-09 14:27:20+00",10.6,12.6,,52.6,-434,205,30,1010.63,52.7,0.7
"2016-11-09 14:32:20+00",9.8,10.8,,52.7,-406,185,23,1010.59,52.7,5.9
"2016-11-09 14:37:20+00",9.2,10.2,,52.8,-358,191,33,1010.6,52.7,6.1
"2016-11-09 14:42:20+00",10.2,11.2,,52.8,-402,213,17,1010.76,52.8,3.4
"2016-11-09 14:47:20+00",10.1,12.1,,52.8,-407,216,27,1010.74,52.8,4
"2016-11-09 14:52:20+00",9.2,11.2,,52.8,-342,231,28,1010.68,52.7,5
"2016-11-09 14:57:20+00",7.5,9.5,,52.7,-270,199,30,1010.62,52.7,7.5
"2016-11-09 15:02:20+00",9.5,10.5,,52.8,-408,113,28,1010.79,52.8,19.6
"2016-11-09 15:07:20+00",9.5,11.5,,52.9,-368,224,12,1010.64,52.9,18.9
"2016-11-09 15:12:20+00",7.6,8.6,,52.9,-270,186,46,1010.69,53.1,21.7
"2016-11-09 15:17:20+00",8.0,9.0,,52.9,-305,188,16,1010.66,53.1,24.8
"2016-11-09 15:22:20+00",8.4,10.4,,53,-333,163,29,1010.75,53.2,9.1
"2016-11-09 15:27:20+00",7.4,8.4,,53,-221,237,14,1010.51,53.2,4.3
"2016-11-09 15:32:20+00",7.0,8.0,,53,-172,253,16,1010.53,53.2,0.7
"2016-11-09 15:37:20+00",7.3,8.3,,53.1,-188,254,24,1010.62,53.1,0
"2016-11-09 15:42:20+00",6.5,7.5,,53.2,-236,171,16,1010.87,53.1,0
"2016-11-09 15:47:20+00",5.8,6.8,,53.4,-155,200,17,1010.64,53.2,0.1
"2016-11-09 15:52:20+00",7.7,8.7,,53.6,-174,286,19,1010.47,53.3,5.4
"2016-11-09 15:57:20+00",7.1,8.1,,53.7,-133,278,4,1010.37,53.5,10.7
"2016-11-09 16:02:20+00",6.6,7.6,,53.8,-123,255,19,1010.27,53.6,16.8
"2016-11-09 16:07:20+00",6.6,7.6,,53.8,-136,249,11,1010.34,53.8,9.8
"2016-11-09 16:12:20+00",6.2,7.2,,53.9,-121,231,24,1010.18,53.9,17.6
"2016-11-09 16:17:20+00",6.9,8.9,,54.1,-150,262,10,1010.18,54.1,12.4
"2016-11-09 16:22:20+00",7.0,7.0,,54.2,-68,291,7,1010.06,54.2,11.9
"2016-11-09 16:27:20+00",4.7,5.7,,54.2,-87,186,27,1010.09,54.3,5
"2016-11-09 16:32:20+00",6.0,7.0,,54.1,-200,168,16,1010.06,54.3,3.8
"2016-11-09 16:37:20+00",6.2,6.2,,53.9,-189,194,19,1010.01,54.1,5.5
"2016-11-09 16:42:20+00",5.7,5.7,,53.8,-138,208,10,1009.74,54,15.1
"2016-11-09 16:47:20+00",5.5,6.5,,53.8,-175,156,26,1009.71,54,34.5
"2016-11-09 16:52:20+00",6.1,7.1,,53.7,-240,133,28,1009.71,54,41.2
"2016-11-09 16:57:20+00",6.5,7.5,,53.5,-215,181,29,1009.49,54,84
"2016-11-09 17:02:20+00",6.2,7.2,,53.5,-214,161,33,1009.5,54,109.4
"2016-11-09 17:07:20+00",7.1,8.1,,53.5,-251,170,46,1009.5,54,27.4
"2016-11-09 17:12:20+00",7.5,8.5,,53.3,-258,205,14,1009.42,53.8,1.7
"2016-11-09 17:17:20+00",6.9,7.9,,53.2,-221,200,22,1009.37,53.6,0.1
"2016-11-09 17:22:20+00",4.9,5.9,,53.2,-138,144,26,1009.16,53.5,34.2
"2016-11-09 17:27:20+00",6.5,7.5,,53.4,-212,185,15,1009.09,53.7,76.1
"2016-11-09 17:32:20+00",6.4,7.4,,53.5,-229,153,15,1009.17,54,48.4
"2016-11-09 17:37:20+00",7.6,7.6,,53.4,-285,168,15,1009.07,54,31.8
"2016-11-09 17:42:20+00",6.3,7.3,,53.4,-235,139,14,1009.06,54,13.4
"2016-11-09 17:47:20+00",5.2,6.2,,53.4,-163,142,30,1008.89,53.9,24.8
"2016-11-09 17:52:20+00",5.1,6.1,,53.4,-174,134,37,1008.86,53.9,29.9
"2016-11-09 17:57:20+00",7.4,8.4,,53.5,-286,137,23,1008.85,54,12.9
"2016-11-09 18:02:20+00",8.7,10.7,,53.6,-342,177,28,1008.84,54,0
"2016-11-09 18:07:20+00",8.8,9.8,,53.6,-330,208,22,1008.73,53.9,0
"2016-11-09 18:12:20+00",10.5,11.5,,53.6,-390,258,31,1008.74,53.8,0
"2016-11-09 18:17:20+00",12.3,13.3,,53.5,-458,297,36,1008.7,53.7,0
"2016-11-09 18:22:20+00",10.8,12.8,,53.4,-412,252,39,1008.72,53.6,0
"2016-11-09 18:27:20+00",11.0,12.0,,53.3,-419,268,36,1008.78,53.5,0.1
"2016-11-09 18:32:20+00",11.4,12.4,,53.3,-413,301,33,1008.73,53.4,0.5
"2016-11-09 18:37:20+00",11.3,12.3,,53.2,-421,282,20,1008.8,53.4,0
"2016-11-09 18:42:20+00",11.3,12.3,,53.3,-433,274,17,1008.73,53.5,0.3
"2016-11-09 18:47:20+00",11.6,13.6,,53.4,-446,272,31,1008.72,53.5,0.2
"2016-11-09 18:52:20+00",9.8,10.8,,53.5,-385,201,37,1008.68,53.6,0
"2016-11-09 18:57:20+00",9.7,11.7,,53.5,-398,171,43,1008.7,53.6,0
"2016-11-09 19:02:20+00",8.9,10.9,,53.5,-362,187,28,1008.67,53.6,0
"2016-11-09 19:07:20+00",8.1,9.1,,53.5,-341,131,22,1008.52,53.6,0
"2016-11-09 19:12:20+00",8.0,8.0,,53.5,-329,143,20,1008.56,53.6,0
"2016-11-09 19:17:20+00",6.4,7.4,,53.5,-243,135,13,1008.5,53.6,0
"2016-11-09 19:22:20+00",5.7,6.7,,53.6,-220,127,35,1008.53,53.7,0
"2016-11-09 19:27:20+00",6.1,6.1,,53.6,-203,166,22,1008.53,53.7,0
"2016-11-09 19:32:20+00",5.3,6.3,,53.7,-181,135,17,1008.61,53.8,0
"2016-11-09 19:37:20+00",4.9,5.9,,53.7,-184,107,18,1008.54,53.8,0
"2016-11-09 19:42:20+00",6.1,7.1,,53.7,-243,104,17,1008.56,53.7,0
"2016-11-09 19:47:20+00",5.7,6.7,,53.7,-242,80,20,1008.64,53.8,0
"2016-11-09 19:52:20+00",8.4,9.4,,53.7,-341,154,19,1008.68,53.7,0
"2016-11-09 19:57:20+00",7.7,8.7,,53.7,-315,138,16,1008.73,53.7,0
"2016-11-09 20:02:20+00",7.7,8.7,,53.7,-319,129,20,1008.76,53.7,0
"2016-11-09 20:07:20+00",9.6,10.6,,53.8,-367,219,35,1008.72,53.7,0
"2016-11-09 20:12:20+00",10.6,11.6,,53.7,-419,214,28,1008.68,53.7,0
"2016-11-09 20:17:20+00",9.1,10.1,,53.8,-368,171,23,1008.75,53.7,0
"2016-11-09 20:22:20+00",9.2,10.2,,53.8,-395,127,25,1008.71,53.8,0
"2016-11-09 20:27:20+00",8.6,9.6,,53.7,-370,107,34,1008.85,53.8,0
"2016-11-09 20:32:20+00",8.4,9.4,,53.8,-361,100,34,1008.82,53.8,0
"2016-11-09 20:37:20+00",7.6,8.6,,53.7,-326,74,16,1008.93,53.8,0
"2016-11-09 20:42:20+00",6.2,7.2,,53.8,-245,115,5,1008.85,53.8,0
"2016-11-09 20:47:20+00",6.9,8.9,,53.9,-274,142,25,1008.85,53.8,0
"2016-11-09 20:52:20+00",6.2,7.2,,54,-251,105,13,1008.85,53.8,0
"2016-11-09 20:57:20+00",5.5,6.5,,54,-202,122,9,1008.89,53.9,0
"2016-11-09 21:02:20+00",6.6,8.6,,54,-218,183,22,1008.96,53.9,0
"2016-11-09 21:07:20+00",6.7,7.7,,54,-175,225,19,1008.95,53.8,0
"2016-11-09 21:12:20+00",6.4,7.4,,54,-161,228,22,1009.03,53.8,0
"2016-11-09 21:17:20+00",6.9,7.9,,54,-205,229,18,1009.08,53.8,0
"2016-11-09 21:22:20+00",7.2,8.2,,53.9,-230,218,18,1009,53.8,0
"2016-11-09 21:27:20+00",6.4,7.4,,53.9,-219,190,18,1009.13,53.7,0
"2016-11-09 21:32:20+00",5.7,5.7,,53.9,-205,143,23,1009.08,53.7,0
"2016-11-09 21:37:20+00",5.5,6.5,,53.9,-195,141,17,1009.07,53.7,0
"2016-11-09 21:42:20+00",5.0,6.0,,53.9,-175,119,14,1008.99,53.7,0
"2016-11-09 21:47:20+00",5.4,6.4,,53.9,-183,134,24,1009.06,53.7,0
"2016-11-09 21:52:20+00",5.9,6.9,,53.8,-213,148,23,1009.13,53.7,0
"2016-11-09 21:57:20+00",4.6,5.6,,53.8,-172,100,15,1009.04,53.7,0
"2016-11-09 22:02:20+00",5.1,6.1,,53.8,-165,144,19,1009.16,53.7,0
"2016-11-09 22:07:20+00",5.4,6.4,,53.7,-199,131,17,1009.12,53.6,0
"2016-11-09 22:12:20+00",5.1,6.1,,53.6,-186,117,30,1009.18,53.6,0
"2016-11-09 22:17:20+00",4.9,5.9,,53.5,-164,137,19,1009.26,53.5,0
"2016-11-09 22:22:20+00",5.1,6.1,,53.4,-157,157,20,1009.2,53.5,0
"2016-11-09 22:27:20+00",6.8,7.8,,53.3,-217,211,20,1009.31,53.3,0
"2016-11-09 22:32:20+00",6.0,7.0,,53.2,-174,195,11,1009.4,53.2,0
"2016-11-09 22:37:20+00",5.7,6.7,,53.1,-151,193,25,1009.38,53.2,0
"2016-11-09 22:42:20+00",6.5,7.5,,53,-162,236,13,1009.49,53.1,0
"2016-11-09 22:47:20+00",6.7,7.7,,52.9,-160,232,16,1009.49,53,0
"2016-11-09 22:52:20+00",7.8,8.8,,52.9,-202,273,16,1009.65,52.9,0
"2016-11-09 22:57:20+00",7.1,8.1,,52.9,-179,249,26,1009.68,52.9,0
"2016-11-09 23:02:20+00",6.5,7.5,,52.9,-165,230,13,1009.75,52.8,0
"2016-11-09 23:07:20+00",8.3,10.3,,52.9,-215,292,19,1009.67,52.8,0
"2016-11-09 23:12:20+00",7.6,8.6,,53,-179,283,25,1009.61,52.7,0
"2016-11-09 23:17:20+00",9.1,11.1,,53,-200,342,19,1009.71,52.6,0
"2016-11-09 23:22:20+00",11.2,13.2,,53.1,-246,424,22,1009.75,52.6,0
"2016-11-09 23:27:20+00",10.0,12.0,,53,-186,387,35,1009.81,52.6,0
"2016-11-09 23:32:20+00",9.5,11.5,,53.1,-197,365,35,1009.83,52.5,0
"2016-11-09 23:37:20+00",9.7,11.7,,53,-203,371,25,1009.87,52.5,0
"2016-11-09 23:42:20+00",9.8,10.8,,52.9,-209,374,20,1009.93,52.5,0
"2016-11-09 23:47:20+00",8.7,9.7,,52.9,-196,320,12,1010.02,52.4,0
"2016-11-09 23:52:20+00",7.8,8.8,,52.9,-184,287,11,1009.96,52.5,0
"2016-11-09 23:57:20+00",7.9,8.9,,52.9,-210,270,25,1010.03,52.5,0
